Powrót do katalogu

BSAT-4B

AktywnyŁącznośćGEO
NORAD 46112·PAYLOAD·🇯🇵 Japan

Wystrzelony Aug 15, 2020 z Guiana Space Centre

Loading…

TLE

ŚwieżeSource: Space-Track

Epoka: Sep 14, 2026, 14:19 UTC

1 46112U 20056A   26257.59685443 -.00000358  00000-0  00000-0 0  9990
2 46112   0.0205 184.5218 0004134 329.9703 163.7751  1.00270489 22282

Śledź BSAT-4B w czasie rzeczywistym z AllMySat

Download on the App Store